Location: Freistadt
(48.5112°N, 14.5013°E)
Time: 22:53:50
(UTC+02:00)

O/OREOS (USA 219) - Pass Details

Date: 06 April 2023
Orbit: 621 x 646 km, 72.0° (Epoch: 22 May)

Event Time Altitude Azimuth Distance (km) Brightness Sun altitude
Exits shadow 04:26:10 27° 178° (S) 1,223 ? -19.7°
Maximum altitude 04:28:27 56° 111° (ESE) 758 ? -19.4°
Drops below altitude 10° 04:32:54 10° 34° (NNE) 2,029 ? -18.8°
Sets 04:35:12 0° 30° (NNE) 2,937 ? -18.5°
